Regional Weather Roundup
Issued by NWS

Home | Current Version | Previous Version | Graphics & Text | Print | Product List | Glossary On
Versions: 1 2 3 4 5 6 7 8 9 10 11 12 13 14 15 16 17 18 19 20 21 22 23 24 25 26 27 28 29 30 31 32 33 34 35 36 37 38 39 40 41 42 43 44 45 46 47 48 49 50
000
ASUS43 KFSD 231510
RWRSD

WEATHER ROUNDUP FOR SOUTH DAKOTA
NATIONAL WEATHER SERVICE SIOUX FALLS SD
900 AM CST THU NOV 23 2017

NOTE: "FAIR" INDICATES FEW OR NO CLOUDS BELOW 12,000 FEET WITH NO
SIGNIFICANT WEATHER AND/OR OBSTRUCTIONS TO VISIBILITY.


SDZ001>005-009-010-012>017-231600-
NORTHWEST AND NORTH CENTRAL SOUTH DAKOTA

CITY           SKY/WX    TMP DP  RH WIND       PRES   REMARKS
FAITH            N/A     49  40  71 SW12      29.89S
MOBRIDGE       CLOUDY    38  35  89 S8        29.84S
$$

SDZ012>016-024>037-041>051-057-063-072>074-231600-
SOUTHWEST AND SOUTH CENTRAL SOUTH DAKOTA

CITY           SKY/WX    TMP DP  RH WIND       PRES   REMARKS
RAPID CTY ARPT CLOUDY    46  37  71 CALM      29.95F
PIERRE         CLOUDY    39  37  92 SW3       29.90F
CUSTER         CLEAR     49  32  52 W9        30.06F
ELLSWORTH AFB  CLOUDY    49  38  65 W6        29.94F
PHILIP         CLOUDY    47  40  76 W8        29.94S
PINE RIDGE     CLOUDY    45  39  79 CALM      30.02F
SPEARFISH      FAIR      61  34  36 W9G18     29.96F
WINNER         FAIR      48  39  71 SW7       29.95F
$$

SDZ004>011-016>023-039-040-231600-
NORTHEAST SOUTH DAKOTA

CITY           SKY/WX    TMP DP  RH WIND       PRES   REMARKS
ABERDEEN       CLOUDY    28  25  88 S13       29.90F WCI  17
WATERTOWN      SUNNY     27  24  89 S5        29.92S WCI  22
BROOKINGS      SUNNY     29  24  82 SW3       29.95F
SISSETON         N/A     28  23  81 S5        29.91F WCI  23
$$

SDZ017-020-022-023-036>040-048>070-231600-
SOUTHEAST SOUTH DAKOTA

CITY           SKY/WX    TMP DP  RH WIND       PRES   REMARKS
SIOUX FALLS    MOSUNNY   34  26  72 SW3       29.98F
HURON          CLOUDY    30  25  81 S8        29.95F WCI  22
CHAMBERLAIN    CLOUDY    36  35  98 CALM      29.95R
MITCHELL       CLOUDY    34  29  82 S7        29.98F WCI  28
YANKTON        SUNNY     35  29  78 CALM      30.01S
$$

ABBREVIATIONS USED IN REMARKS
   TC - TEMPERATURE IN CELSIUS
  WCI - WIND CHILL INDEX
   HX - HEAT INDEX
  VSB - VISIBILITY





USA.gov is the U.S. government's official web portal to all federal, state and local government web resources and services.